Time,TemperatureF,DewpointF,PressureIn,WindDirection,WindDirectionDegrees,WindSpeedMPH,WindSpeedGustMPH,Humidity,HourlyPrecipIn,Conditions,Clouds,dailyrainin,SolarRadiationWatts/m^2,SoftwareType,DateUTC
2013-02-11 00:01:00,38.2,32.6,30.06,ESE,119,0.2,1.1,80,0.00,,,0.00,0.0,WeatherDisplay:10.37,2013-02-11 08:01:00,
2013-02-11 00:06:00,38.2,32.9,30.06,ESE,119,0.0,0.0,81,0.00,,,0.00,0.0,WeatherDisplay:10.37,2013-02-11 08:06:00,
2013-02-11 00:11:00,38.7,33.1,30.06,ESE,119,0.0,0.0,80,0.00,,,0.00,0.0,WeatherDisplay:10.37,2013-02-11 08:11:00,
2013-02-11 00:16:00,39.0,33.0,30.06,ESE,119,0.2,1.1,79,0.00,,,0.00,0.0,WeatherDisplay:10.37,2013-02-11 08:16:00,
2013-02-11 00:21:00,38.7,32.7,30.06,ESE,119,0.0,1.1,79,0.00,,,0.00,0.0,WeatherDisplay:10.37,2013-02-11 08:21:00,
2013-02-11 00:26:00,38.4,32.5,30.06,ESE,119,0.0,0.0,79,0.00,,,0.00,0.0,WeatherDisplay:10.37,2013-02-11 08:26:00,
2013-02-11 00:31:00,38.3,32.4,30.06,ESE,119,0.0,0.0,79,0.00,,,0.00,0.0,WeatherDisplay:10.37,2013-02-11 08:31:00,
2013-02-11 00:36:00,38.4,32.5,30.06,ESE,119,0.0,0.0,79,0.00,,,0.00,0.0,WeatherDisplay:10.37,2013-02-11 08:36:00,
2013-02-11 00:41:00,38.1,32.2,30.06,ESE,119,0.6,1.0,79,0.00,,,0.00,0.0,WeatherDisplay:10.37,2013-02-11 08:41:00,
2013-02-11 00:46:00,38.1,32.5,30.06,ESE,119,0.0,2.3,80,0.00,,,0.00,0.0,WeatherDisplay:10.37,2013-02-11 08:46:00,
2013-02-11 00:51:00,37.9,32.0,30.06,ESE,119,0.0,0.0,79,0.00,,,0.00,0.0,WeatherDisplay:10.37,2013-02-11 08:51:00,
2013-02-11 00:56:00,38.2,32.6,30.06,ESE,119,0.0,1.1,80,0.00,,,0.00,0.0,WeatherDisplay:10.37,2013-02-11 08:56:00,
2013-02-11 01:01:00,38.4,32.5,30.06,ESE,119,0.0,0.0,79,0.00,,,0.00,0.0,WeatherDisplay:10.37,2013-02-11 09:01:00,
2013-02-11 01:07:00,38.7,32.4,30.07,ESE,119,1.2,1.2,78,0.00,,,0.00,0.0,WeatherDisplay:10.37,2013-02-11 09:07:00,
2013-02-11 01:13:00,39.1,32.5,30.07,ESE,122,0.1,2.3,77,0.00,,,0.00,0.0,WeatherDisplay:10.37,2013-02-11 09:13:00,
2013-02-11 01:18:00,39.1,32.2,30.07,ESE,122,0.0,0.0,76,0.00,,,0.00,0.0,WeatherDisplay:10.37,2013-02-11 09:18:00,
2013-02-11 01:23:00,39.1,32.2,30.07,ESE,122,1.0,1.1,76,0.00,,,0.00,0.0,WeatherDisplay:10.37,2013-02-11 09:23:00,
2013-02-11 01:28:00,38.4,31.5,30.07,ESE,122,0.0,0.0,76,0.00,,,0.00,0.0,WeatherDisplay:10.37,2013-02-11 09:28:00,
2013-02-11 01:33:00,38.6,31.7,30.07,ESE,122,0.0,0.0,76,0.00,,,0.00,0.0,WeatherDisplay:10.37,2013-02-11 09:33:00,
2013-02-11 01:38:00,38.4,31.8,30.07,ESE,122,0.0,0.0,77,0.00,,,0.00,0.0,WeatherDisplay:10.37,2013-02-11 09:38:00,
2013-02-11 01:43:00,38.2,31.6,30.07,ESE,122,0.0,0.0,77,0.00,,,0.00,0.0,WeatherDisplay:10.37,2013-02-11 09:43:00,
2013-02-11 01:48:00,38.2,31.6,30.07,ESE,122,0.0,0.0,77,0.00,,,0.00,0.0,WeatherDisplay:10.37,2013-02-11 09:48:00,
2013-02-11 01:53:00,37.9,31.7,30.07,ESE,122,0.0,0.0,78,0.00,,,0.00,0.0,WeatherDisplay:10.37,2013-02-11 09:53:00,
2013-02-11 01:58:00,37.7,31.5,30.07,ESE,122,0.0,0.0,78,0.00,,,0.00,0.0,WeatherDisplay:10.37,2013-02-11 09:58:00,
2013-02-11 02:04:00,37.5,31.3,30.07,ESE,122,0.0,0.0,78,0.00,,,0.00,0.0,WeatherDisplay:10.37,2013-02-11 10:04:00,
2013-02-11 02:09:00,37.5,31.6,30.07,ESE,122,0.0,0.0,79,0.00,,,0.00,0.0,WeatherDisplay:10.37,2013-02-11 10:09:00,
2013-02-11 02:14:00,37.5,31.6,30.07,ESE,122,0.0,0.0,79,0.00,,,0.00,0.0,WeatherDisplay:10.37,2013-02-11 10:14:00,
2013-02-11 02:19:00,37.4,31.5,30.07,ESE,122,0.3,2.3,79,0.00,,,0.00,0.0,WeatherDisplay:10.37,2013-02-11 10:19:00,
2013-02-11 02:24:00,37.3,31.4,30.07,ESE,122,0.0,0.0,79,0.00,,,0.00,0.0,WeatherDisplay:10.37,2013-02-11 10:24:00,
2013-02-11 02:30:00,37.1,31.2,30.07,ESE,122,0.0,0.0,79,0.00,,,0.00,0.0,WeatherDisplay:10.37,2013-02-11 10:30:00,
2013-02-11 02:35:00,36.9,31.3,30.07,ESE,122,0.0,0.0,80,0.00,,,0.00,0.0,WeatherDisplay:10.37,2013-02-11 10:35:00,
2013-02-11 02:40:00,36.8,31.2,30.07,ESE,122,0.0,0.0,80,0.00,,,0.00,0.0,WeatherDisplay:10.37,2013-02-11 10:40:00,
2013-02-11 02:45:00,36.5,30.9,30.07,ESE,122,0.2,1.1,80,0.00,,,0.00,0.0,WeatherDisplay:10.37,2013-02-11 10:45:00,
2013-02-11 02:50:00,37.1,31.5,30.07,ESE,122,0.0,0.0,80,0.00,,,0.00,0.0,WeatherDisplay:10.37,2013-02-11 10:50:00,
2013-02-11 02:55:00,37.1,31.2,30.07,ESE,122,0.3,2.3,79,0.00,,,0.00,0.0,WeatherDisplay:10.37,2013-02-11 10:55:00,
2013-02-11 03:00:00,37.7,31.8,30.07,ESE,122,1.3,3.5,79,0.00,,,0.00,0.0,WeatherDisplay:10.37,2013-02-11 11:00:00,
2013-02-11 03:05:00,37.7,31.5,30.07,ESE,122,0.1,0.0,78,0.00,,,0.00,0.0,WeatherDisplay:10.37,2013-02-11 11:05:00,
2013-02-11 03:11:00,37.9,31.3,30.08,SSW,205,0.2,1.1,77,0.00,,,0.00,0.0,WeatherDisplay:10.37,2013-02-11 11:11:00,
2013-02-11 03:16:00,37.5,30.9,30.08,SSW,205,0.0,0.0,77,0.00,,,0.00,0.0,WeatherDisplay:10.37,2013-02-11 11:16:00,
2013-02-11 03:21:00,37.2,30.7,30.08,SSW,205,0.0,0.0,77,0.00,,,0.00,0.0,WeatherDisplay:10.37,2013-02-11 11:21:00,
2013-02-11 03:26:00,37.3,30.7,30.08,SSW,205,0.0,0.0,77,0.00,,,0.00,0.0,WeatherDisplay:10.37,2013-02-11 11:26:00,
2013-02-11 03:31:00,37.5,30.9,30.08,SSW,205,0.0,0.0,77,0.00,,,0.00,0.0,WeatherDisplay:10.37,2013-02-11 11:31:00,
2013-02-11 03:37:00,37.8,31.2,30.08,SSW,205,0.0,1.1,77,0.00,,,0.00,0.0,WeatherDisplay:10.37,2013-02-11 11:37:00,
2013-02-11 03:42:00,37.8,30.9,30.08,SSW,205,0.0,0.0,76,0.00,,,0.00,0.0,WeatherDisplay:10.37,2013-02-11 11:42:00,
2013-02-11 03:47:00,37.9,30.7,30.08,SSW,205,0.0,0.0,75,0.00,,,0.00,0.0,WeatherDisplay:10.37,2013-02-11 11:47:00,
2013-02-11 03:52:00,37.8,30.6,30.08,SSW,205,0.0,0.0,75,0.00,,,0.00,0.0,WeatherDisplay:10.37,2013-02-11 11:52:00,
2013-02-11 03:57:00,37.7,30.5,30.08,SSW,205,0.0,0.0,75,0.00,,,0.00,0.0,WeatherDisplay:10.37,2013-02-11 11:57:00,
2013-02-11 04:03:00,37.3,30.4,30.08,SSW,205,0.0,2.3,76,0.00,,,0.00,0.0,WeatherDisplay:10.37,2013-02-11 12:03:00,
2013-02-11 04:08:00,37.1,30.2,30.08,SSW,205,0.1,1.1,76,0.00,,,0.00,0.0,WeatherDisplay:10.37,2013-02-11 12:08:00,
2013-02-11 04:14:00,37.2,30.7,30.08,SSW,205,0.0,0.0,77,0.00,,,0.00,0.0,WeatherDisplay:10.37,2013-02-11 12:14:00,
2013-02-11 04:20:00,37.2,30.7,30.08,SSW,205,0.1,0.0,77,0.00,,,0.00,0.0,WeatherDisplay:10.37,2013-02-11 12:20:00,
2013-02-11 04:25:00,37.4,30.5,30.08,SSW,205,0.0,0.0,76,0.00,,,0.00,0.0,WeatherDisplay:10.37,2013-02-11 12:25:00,
2013-02-11 04:30:00,37.3,30.4,30.08,SSW,205,0.0,0.0,76,0.00,,,0.00,0.0,WeatherDisplay:10.37,2013-02-11 12:30:00,
2013-02-11 04:35:00,37.2,30.7,30.08,SSW,205,0.1,2.3,77,0.00,,,0.00,0.0,WeatherDisplay:10.37,2013-02-11 12:35:00,
2013-02-11 04:40:00,37.6,30.7,30.08,SSW,213,2.6,4.6,76,0.00,,,0.00,0.0,WeatherDisplay:10.37,2013-02-11 12:40:00,
2013-02-11 04:45:00,38.3,30.7,30.09,SW,219,0.2,1.1,74,0.00,,,0.00,0.0,WeatherDisplay:10.37,2013-02-11 12:45:00,
2013-02-11 04:50:00,37.9,30.4,30.09,SW,219,0.2,1.1,74,0.00,,,0.00,0.0,WeatherDisplay:10.37,2013-02-11 12:50:00,
2013-02-11 04:55:00,38.8,30.5,30.09,SW,221,1.4,4.6,72,0.00,,,0.00,0.0,WeatherDisplay:10.37,2013-02-11 12:55:00,
2013-02-11 05:00:00,39.9,30.5,30.09,SW,221,0.1,0.0,69,0.00,,,0.00,0.0,WeatherDisplay:10.37,2013-02-11 13:00:00,
2013-02-11 05:05:00,40.8,30.3,30.09,SW,222,0.1,2.3,66,0.00,,,0.00,0.0,WeatherDisplay:10.37,2013-02-11 13:05:00,
2013-02-11 05:10:00,40.9,29.7,30.10,SW,222,0.1,1.1,64,0.00,,,0.00,0.0,WeatherDisplay:10.37,2013-02-11 13:10:00,
2013-02-11 05:15:00,41.3,29.6,30.09,SW,222,0.6,2.3,63,0.00,,,0.00,0.0,WeatherDisplay:10.37,2013-02-11 13:15:00,
2013-02-11 05:20:00,41.9,29.4,30.09,WSW,240,0.5,3.5,61,0.00,,,0.00,0.0,WeatherDisplay:10.37,2013-02-11 13:20:00,
2013-02-11 05:25:00,42.4,29.1,30.09,WSW,240,0.5,2.3,59,0.00,,,0.00,0.0,WeatherDisplay:10.37,2013-02-11 13:25:00,
2013-02-11 05:30:00,42.1,29.2,30.09,WSW,240,0.4,3.5,60,0.00,,,0.00,0.0,WeatherDisplay:10.37,2013-02-11 13:30:00,
2013-02-11 05:35:00,41.9,29.0,30.10,WSW,240,2.3,3.5,60,0.00,,,0.00,0.0,WeatherDisplay:10.37,2013-02-11 13:35:00,
2013-02-11 05:40:00,41.5,29.0,30.10,WSW,240,0.1,2.3,61,0.00,,,0.00,0.0,WeatherDisplay:10.37,2013-02-11 13:40:00,
2013-02-11 05:45:00,41.0,29.0,30.09,WSW,240,0.0,1.1,62,0.00,,,0.00,0.0,WeatherDisplay:10.37,2013-02-11 13:45:00,
2013-02-11 05:50:00,40.1,28.9,30.10,WSW,240,0.0,0.0,64,0.00,,,0.00,0.0,WeatherDisplay:10.37,2013-02-11 13:50:00,
2013-02-11 05:55:00,39.8,29.4,30.10,WSW,240,0.0,2.3,66,0.00,,,0.00,0.0,WeatherDisplay:10.37,2013-02-11 13:55:00,
2013-02-11 06:00:00,39.6,29.2,30.10,WSW,240,0.8,3.5,66,0.00,,,0.00,0.0,WeatherDisplay:10.37,2013-02-11 14:00:00,
2013-02-11 06:05:00,39.3,29.3,30.10,WSW,240,0.0,2.3,67,0.00,,,0.00,0.0,WeatherDisplay:10.37,2013-02-11 14:05:00,
2013-02-11 06:10:00,39.4,29.3,30.11,WSW,240,0.0,0.0,67,0.00,,,0.00,0.0,WeatherDisplay:10.37,2013-02-11 14:10:00,
2013-02-11 06:15:00,40.2,29.4,30.11,WSW,240,1.9,3.5,65,0.00,,,0.00,0.0,WeatherDisplay:10.37,2013-02-11 14:15:00,
2013-02-11 06:20:00,40.4,29.2,30.11,WSW,240,1.5,2.3,64,0.00,,,0.00,0.0,WeatherDisplay:10.37,2013-02-11 14:20:00,
2013-02-11 06:25:00,41.7,28.8,30.11,WSW,240,0.1,2.3,60,0.00,,,0.00,0.0,WeatherDisplay:10.37,2013-02-11 14:25:00,
2013-02-11 06:30:00,42.8,28.6,30.11,WSW,240,0.4,0.0,57,0.00,,,0.00,0.0,WeatherDisplay:10.37,2013-02-11 14:30:00,
2013-02-11 06:35:00,42.8,29.0,30.11,WSW,240,0.0,0.0,58,0.00,,,0.00,0.0,WeatherDisplay:10.37,2013-02-11 14:35:00,
2013-02-11 06:40:00,41.7,28.8,30.11,WSW,240,0.0,1.1,60,0.00,,,0.00,0.0,WeatherDisplay:10.37,2013-02-11 14:40:00,
2013-02-11 06:45:00,40.2,29.0,30.12,WSW,240,0.0,0.0,64,0.00,,,0.00,0.0,WeatherDisplay:10.37,2013-02-11 14:45:00,
2013-02-11 06:50:00,40.7,28.7,30.12,WSW,240,0.0,0.0,62,0.00,,,0.00,0.0,WeatherDisplay:10.37,2013-02-11 14:50:00,
2013-02-11 06:55:00,39.9,29.1,30.12,WSW,240,0.0,0.0,65,0.00,,,0.00,0.0,WeatherDisplay:10.37,2013-02-11 14:55:00,
2013-02-11 07:00:00,38.9,28.9,30.12,WSW,240,0.2,2.3,67,0.00,,,0.00,0.0,WeatherDisplay:10.37,2013-02-11 15:00:00,
2013-02-11 07:05:00,38.5,29.2,30.12,WSW,240,0.0,0.0,69,0.00,CLR,,0.00,0.0,WeatherDisplay:10.37,2013-02-11 15:05:00,
2013-02-11 07:10:00,38.5,29.6,30.12,WSW,240,0.2,1.1,70,0.00,CLR,,0.00,5.0,WeatherDisplay:10.37,2013-02-11 15:10:00,
2013-02-11 07:15:00,39.0,29.7,30.12,WSW,240,0.6,2.3,69,0.00,CLR,,0.00,11.0,WeatherDisplay:10.37,2013-02-11 15:15:00,
2013-02-11 07:20:00,41.2,29.9,30.13,WSW,240,0.0,1.1,64,0.00,SCT,,0.00,12.0,WeatherDisplay:10.37,2013-02-11 15:20:00,
2013-02-11 07:25:00,40.5,29.7,30.13,WSW,240,0.7,2.3,65,0.00,SCT,,0.00,16.0,WeatherDisplay:10.37,2013-02-11 15:25:00,
2013-02-11 07:30:00,39.8,30.1,30.13,WSW,250,0.4,3.5,68,0.00,SCT,,0.00,25.0,WeatherDisplay:10.37,2013-02-11 15:30:00,
2013-02-11 07:35:00,39.8,30.1,30.13,WSW,250,0.0,1.1,68,0.00,SCT,,0.00,39.0,WeatherDisplay:10.37,2013-02-11 15:35:00,
2013-02-11 07:40:00,40.5,31.5,30.13,WSW,250,0.0,0.0,70,0.00,FEW,,0.00,51.0,WeatherDisplay:10.37,2013-02-11 15:40:00,
2013-02-11 07:45:00,41.3,31.2,30.14,WSW,250,0.9,3.5,67,0.00,CLR,,0.00,70.0,WeatherDisplay:10.37,2013-02-11 15:45:00,
2013-02-11 07:50:00,42.2,31.3,30.14,WSW,250,0.0,1.1,65,0.00,CLR,,0.00,84.0,WeatherDisplay:10.37,2013-02-11 15:50:00,
2013-02-11 07:55:00,45.0,30.7,30.14,WSW,250,0.0,0.0,57,0.00,CLR,,0.00,95.0,WeatherDisplay:10.37,2013-02-11 15:55:00,
2013-02-11 08:00:00,46.6,31.3,30.15,WSW,250,0.0,0.0,55,0.00,SCT,,0.00,60.0,WeatherDisplay:10.37,2013-02-11 16:00:00,
2013-02-11 08:05:00,47.9,31.1,30.15,WSW,250,0.5,1.1,52,0.00,BKN,,0.00,49.0,WeatherDisplay:10.37,2013-02-11 16:05:00,
2013-02-11 08:10:00,48.3,31.5,30.15,WSW,252,1.2,3.5,52,0.00,BKN,,0.00,60.0,WeatherDisplay:10.37,2013-02-11 16:10:00,
2013-02-11 08:15:00,46.7,32.3,30.15,WSW,252,1.1,3.5,57,0.00,CLR,,0.00,188.0,WeatherDisplay:10.37,2013-02-11 16:15:00,
2013-02-11 08:20:00,49.0,29.6,30.16,WSW,252,0.7,2.3,47,0.00,CLR,,0.00,206.0,WeatherDisplay:10.37,2013-02-11 16:20:00,
2013-02-11 08:25:00,50.9,30.3,30.16,WSW,252,0.3,1.1,45,0.00,CLR,,0.00,227.0,WeatherDisplay:10.37,2013-02-11 16:25:00,
2013-02-11 08:30:00,52.3,29.9,30.16,West,260,1.3,3.5,42,0.00,CLR,,0.00,248.0,WeatherDisplay:10.37,2013-02-11 16:30:00,
2013-02-11 08:35:00,52.0,31.3,30.16,West,260,2.0,3.5,45,0.00,CLR,,0.00,262.0,WeatherDisplay:10.37,2013-02-11 16:35:00,
2013-02-11 08:40:00,52.5,32.8,30.17,West,260,1.9,3.5,47,0.00,CLR,,0.00,281.0,WeatherDisplay:10.37,2013-02-11 16:40:00,
2013-02-11 08:45:00,52.1,34.0,30.16,West,260,0.1,3.5,50,0.00,CLR,,0.00,297.0,WeatherDisplay:10.37,2013-02-11 16:45:00,
2013-02-11 08:50:00,52.6,33.5,30.16,West,260,1.4,3.5,48,0.00,CLR,,0.00,313.0,WeatherDisplay:10.37,2013-02-11 16:50:00,
2013-02-11 08:55:00,52.6,32.9,30.16,West,269,3.4,4.6,47,0.00,CLR,,0.00,330.0,WeatherDisplay:10.37,2013-02-11 16:55:00,
2013-02-11 09:00:00,53.4,30.3,30.17,NW,311,3.8,4.6,41,0.00,CLR,,0.00,350.0,WeatherDisplay:10.37,2013-02-11 17:00:00,
2013-02-11 09:05:00,54.3,29.2,30.17,NW,313,2.9,3.5,38,0.00,CLR,,0.00,362.0,WeatherDisplay:10.37,2013-02-11 17:05:00,
2013-02-11 09:10:00,54.9,29.1,30.17,NNE,13,3.1,4.6,37,0.00,CLR,,0.00,378.0,WeatherDisplay:10.37,2013-02-11 17:10:00,
2013-02-11 09:15:00,55.7,28.4,30.17,NNE,13,2.6,3.5,35,0.00,CLR,,0.00,394.0,WeatherDisplay:10.37,2013-02-11 17:15:00,
2013-02-11 09:20:00,56.0,29.4,30.17,NNE,13,1.4,3.5,36,0.00,CLR,,0.00,406.0,WeatherDisplay:10.37,2013-02-11 17:20:00,
2013-02-11 09:25:00,56.4,28.3,30.17,NNE,13,0.7,3.5,34,0.00,CLR,,0.00,424.0,WeatherDisplay:10.37,2013-02-11 17:25:00,
2013-02-11 09:30:00,57.0,28.9,30.17,NNE,13,1.7,3.5,34,0.00,CLR,,0.00,439.0,WeatherDisplay:10.37,2013-02-11 17:30:00,
2013-02-11 09:35:00,57.1,29.0,30.17,NNE,13,2.4,3.5,34,0.00,CLR,,0.00,452.0,WeatherDisplay:10.37,2013-02-11 17:35:00,
2013-02-11 09:40:00,57.3,27.7,30.17,NNE,14,4.8,6.9,32,0.00,CLR,,0.00,468.0,WeatherDisplay:10.37,2013-02-11 17:40:00,
2013-02-11 09:45:00,57.1,28.2,30.17,NNE,19,4.1,6.9,33,0.00,CLR,,0.00,482.0,WeatherDisplay:10.37,2013-02-11 17:45:00,
2013-02-11 09:50:00,57.6,28.7,30.17,NNE,19,4.3,8.1,33,0.00,CLR,,0.00,494.0,WeatherDisplay:10.37,2013-02-11 17:50:00,
2013-02-11 09:55:00,58.2,29.2,30.17,NNE,21,3.6,6.0,33,0.00,CLR,,0.00,510.0,WeatherDisplay:10.37,2013-02-11 17:55:00,
2013-02-11 10:00:00,58.4,27.9,30.17,NNE,19,6.5,6.9,31,0.00,CLR,,0.00,522.0,WeatherDisplay:10.37,2013-02-11 18:00:00,
2013-02-11 10:05:00,58.5,28.7,30.17,NNE,27,5.5,8.1,32,0.00,CLR,,0.00,533.0,WeatherDisplay:10.37,2013-02-11 18:05:00,
2013-02-11 10:10:00,58.6,28.8,30.17,NNE,13,5.6,11.5,32,0.00,CLR,,0.00,547.0,WeatherDisplay:10.37,2013-02-11 18:10:00,
2013-02-11 10:15:00,58.6,28.8,30.17,NNE,26,8.0,8.1,32,0.00,CLR,,0.00,561.0,WeatherDisplay:10.37,2013-02-11 18:15:00,
2013-02-11 10:20:00,58.4,29.4,30.18,NNE,32,4.2,8.1,33,0.00,CLR,,0.00,570.0,WeatherDisplay:10.37,2013-02-11 18:20:00,
2013-02-11 10:25:00,58.1,30.6,30.18,ENE,60,4.3,8.0,35,0.00,CLR,,0.00,578.0,WeatherDisplay:10.37,2013-02-11 18:25:00,
2013-02-11 10:30:00,57.8,31.0,30.18,ENE,63,3.8,5.8,36,0.00,CLR,,0.00,591.0,WeatherDisplay:10.37,2013-02-11 18:30:00,
2013-02-11 10:35:00,58.3,30.0,30.18,NNE,31,5.6,8.1,34,0.00,CLR,,0.00,599.0,WeatherDisplay:10.37,2013-02-11 18:35:00,
2013-02-11 10:40:00,58.1,29.8,30.18,NNE,30,5.5,6.9,34,0.00,CLR,,0.00,610.0,WeatherDisplay:10.37,2013-02-11 18:40:00,
2013-02-11 10:45:00,58.3,30.0,30.18,NE,46,3.2,5.8,34,0.00,CLR,,0.00,619.0,WeatherDisplay:10.37,2013-02-11 18:45:00,
2013-02-11 10:50:00,58.4,30.8,30.18,ENE,61,1.6,6.9,35,0.00,CLR,,0.00,628.0,WeatherDisplay:10.37,2013-02-11 18:50:00,
2013-02-11 10:55:00,58.9,29.8,30.18,NE,34,4.7,10.4,33,0.00,CLR,,0.00,638.0,WeatherDisplay:10.37,2013-02-11 18:55:00,
2013-02-11 11:00:00,59.5,29.6,30.18,NE,36,4.8,6.9,32,0.00,CLR,,0.00,645.0,WeatherDisplay:10.37,2013-02-11 19:00:00,
2013-02-11 11:05:00,59.5,31.1,30.18,NE,40,2.5,3.5,34,0.00,CLR,,0.00,652.0,WeatherDisplay:10.37,2013-02-11 19:05:00,
2013-02-11 11:10:00,59.6,29.7,30.18,NE,44,4.4,6.9,32,0.00,CLR,,0.00,661.0,WeatherDisplay:10.37,2013-02-11 19:10:00,
2013-02-11 11:15:00,59.4,30.3,30.18,NE,42,4.3,5.8,33,0.00,CLR,,0.00,663.0,WeatherDisplay:10.37,2013-02-11 19:15:00,
2013-02-11 11:20:00,59.4,30.3,30.18,NE,56,4.0,6.9,33,0.00,CLR,,0.00,670.0,WeatherDisplay:10.37,2013-02-11 19:20:00,
2013-02-11 11:25:00,59.7,31.3,30.17,NE,55,3.6,6.0,34,0.00,CLR,,0.00,675.0,WeatherDisplay:10.37,2013-02-11 19:25:00,
2013-02-11 11:30:00,59.6,30.4,30.17,NE,40,5.5,6.9,33,0.00,CLR,,0.00,680.0,WeatherDisplay:10.37,2013-02-11 19:30:00,
2013-02-11 11:35:00,59.5,30.3,30.17,ENE,60,1.3,3.5,33,0.00,CLR,,0.00,686.0,WeatherDisplay:10.37,2013-02-11 19:35:00,
2013-02-11 11:40:00,59.5,29.6,30.17,NE,34,4.4,6.9,32,0.00,CLR,,0.00,691.0,WeatherDisplay:10.37,2013-02-11 19:40:00,
2013-02-11 11:45:00,59.5,29.6,30.17,NE,40,2.4,3.5,32,0.00,CLR,,0.00,694.0,WeatherDisplay:10.37,2013-02-11 19:45:00,
2013-02-11 11:50:00,60.1,30.9,30.17,NE,40,1.4,3.5,33,0.00,CLR,,0.00,698.0,WeatherDisplay:10.37,2013-02-11 19:50:00,
2013-02-11 11:55:00,60.5,29.7,30.17,NE,40,0.5,2.3,31,0.00,CLR,,0.00,703.0,WeatherDisplay:10.37,2013-02-11 19:55:00,
2013-02-11 12:00:00,60.5,29.7,30.16,NE,40,2.3,3.5,31,0.00,CLR,,0.00,705.0,WeatherDisplay:10.37,2013-02-11 20:00:00,
2013-02-11 12:05:00,60.9,29.2,30.16,NE,40,2.0,4.6,30,0.00,CLR,,0.00,708.0,WeatherDisplay:10.37,2013-02-11 20:05:00,
2013-02-11 12:10:00,61.2,29.5,30.16,NE,41,0.8,2.3,30,0.00,CLR,,0.00,708.0,WeatherDisplay:10.37,2013-02-11 20:10:00,
2013-02-11 12:15:00,61.4,29.7,30.16,NE,34,3.1,5.8,30,0.00,CLR,,0.00,710.0,WeatherDisplay:10.37,2013-02-11 20:15:00,
2013-02-11 12:20:00,61.6,29.0,30.16,NE,36,1.0,3.5,29,0.00,CLR,,0.00,710.0,WeatherDisplay:10.37,2013-02-11 20:20:00,
2013-02-11 12:25:00,61.6,30.6,30.15,NE,40,3.1,3.5,31,0.00,CLR,,0.00,712.0,WeatherDisplay:10.37,2013-02-11 20:25:00,
2013-02-11 12:30:00,61.6,30.6,30.15,NE,42,1.2,3.5,31,0.00,CLR,,0.00,710.0,WeatherDisplay:10.37,2013-02-11 20:30:00,
2013-02-11 12:35:00,62.0,31.0,30.15,NE,42,0.9,4.0,31,0.00,CLR,,0.00,708.0,WeatherDisplay:10.37,2013-02-11 20:35:00,
2013-02-11 12:40:00,62.4,29.7,30.15,NE,42,1.7,3.5,29,0.00,CLR,,0.00,710.0,WeatherDisplay:10.37,2013-02-11 20:40:00,
2013-02-11 12:45:00,62.5,30.6,30.14,ENE,71,1.4,4.6,30,0.00,CLR,,0.00,708.0,WeatherDisplay:10.37,2013-02-11 20:45:00,
2013-02-11 12:50:00,62.1,30.3,30.14,ENE,71,0.8,2.3,30,0.00,CLR,,0.00,705.0,WeatherDisplay:10.37,2013-02-11 20:50:00,
2013-02-11 12:55:00,62.1,29.4,30.14,ENE,64,2.5,4.0,29,0.00,CLR,,0.00,701.0,WeatherDisplay:10.37,2013-02-11 20:55:00,
2013-02-11 13:00:00,62.0,29.3,30.14,ENE,63,1.7,4.6,29,0.00,CLR,,0.00,700.0,WeatherDisplay:10.37,2013-02-11 21:00:00,
2013-02-11 13:05:00,62.6,29.9,30.14,ENE,57,1.9,3.5,29,0.00,CLR,,0.00,696.0,WeatherDisplay:10.37,2013-02-11 21:05:00,
2013-02-11 13:10:00,62.5,30.6,30.13,ENE,57,0.9,2.0,30,0.00,CLR,,0.00,696.0,WeatherDisplay:10.37,2013-02-11 21:10:00,
2013-02-11 13:16:00,63.1,30.3,30.13,ENE,60,3.2,6.9,29,0.00,CLR,,0.00,691.0,WeatherDisplay:10.37,2013-02-11 21:16:00,
2013-02-11 13:21:00,63.2,30.4,30.13,NE,51,1.2,4.0,29,0.00,CLR,,0.00,686.0,WeatherDisplay:10.37,2013-02-11 21:21:00,
2013-02-11 13:26:00,62.9,30.1,30.13,NE,48,0.9,2.3,29,0.00,CLR,,0.00,680.0,WeatherDisplay:10.37,2013-02-11 21:26:00,
2013-02-11 13:31:00,63.1,30.3,30.13,NE,50,0.9,2.3,29,0.00,CLR,,0.00,675.0,WeatherDisplay:10.37,2013-02-11 21:31:00,
2013-02-11 13:36:00,63.4,30.6,30.13,NE,51,1.8,2.3,29,0.00,CLR,,0.00,670.0,WeatherDisplay:10.37,2013-02-11 21:36:00,
2013-02-11 13:41:00,63.4,29.7,30.13,NE,51,1.2,2.3,28,0.00,CLR,,0.00,663.0,WeatherDisplay:10.37,2013-02-11 21:41:00,
2013-02-11 13:46:00,63.8,30.0,30.13,NE,51,0.3,2.3,28,0.00,CLR,,0.00,656.0,WeatherDisplay:10.37,2013-02-11 21:46:00,
2013-02-11 13:51:00,63.5,28.9,30.12,ENE,67,2.9,4.6,27,0.00,CLR,,0.00,649.0,WeatherDisplay:10.37,2013-02-11 21:51:00,
2013-02-11 13:56:00,62.7,30.0,30.12,ENE,75,1.1,4.6,29,0.00,CLR,,0.00,638.0,WeatherDisplay:10.37,2013-02-11 21:56:00,
2013-02-11 14:01:00,63.2,30.4,30.12,ENE,75,2.1,4.0,29,0.00,CLR,,0.00,628.0,WeatherDisplay:10.37,2013-02-11 22:01:00,
2013-02-11 14:06:00,63.8,30.9,30.12,ENE,57,1.3,2.3,29,0.00,CLR,,0.00,619.0,WeatherDisplay:10.37,2013-02-11 22:06:00,
2013-02-11 14:11:00,63.8,31.7,30.12,SE,126,5.0,8.1,30,0.00,CLR,,0.00,612.0,WeatherDisplay:10.37,2013-02-11 22:11:00,
2013-02-11 14:16:00,62.7,31.6,30.12,South,171,5.5,5.8,31,0.00,CLR,,0.00,603.0,WeatherDisplay:10.37,2013-02-11 22:16:00,
2013-02-11 14:21:00,62.8,32.5,30.12,SSE,152,4.7,4.7,32,0.00,CLR,,0.00,589.0,WeatherDisplay:10.37,2013-02-11 22:21:00,
2013-02-11 14:26:00,62.4,32.1,30.12,South,184,4.7,5.8,32,0.00,CLR,,0.00,580.0,WeatherDisplay:10.37,2013-02-11 22:26:00,
2013-02-11 14:31:00,62.2,32.0,30.12,SSE,149,3.9,8.1,32,0.00,CLR,,0.00,568.0,WeatherDisplay:10.37,2013-02-11 22:31:00,
2013-02-11 14:36:00,62.5,33.0,30.12,South,186,4.3,9.2,33,0.00,CLR,,0.00,557.0,WeatherDisplay:10.37,2013-02-11 22:36:00,
2013-02-11 14:41:00,62.5,33.0,30.12,SSW,192,7.3,9.2,33,0.00,CLR,,0.00,547.0,WeatherDisplay:10.37,2013-02-11 22:41:00,
2013-02-11 14:46:00,62.2,32.7,30.12,South,190,5.9,5.9,33,0.00,CLR,,0.00,531.0,WeatherDisplay:10.37,2013-02-11 22:46:00,
2013-02-11 14:51:00,61.7,32.3,30.12,SSW,195,3.1,5.8,33,0.00,CLR,,0.00,520.0,WeatherDisplay:10.37,2013-02-11 22:51:00,
2013-02-11 14:56:00,61.9,32.5,30.12,SSW,194,3.6,5.0,33,0.00,CLR,,0.00,508.0,WeatherDisplay:10.37,2013-02-11 22:56:00,
2013-02-11 15:01:00,61.4,32.0,30.12,South,188,4.4,5.8,33,0.00,CLR,,0.00,496.0,WeatherDisplay:10.37,2013-02-11 23:01:00,
2013-02-11 15:06:00,61.7,32.3,30.12,South,184,4.9,6.9,33,0.00,CLR,,0.00,483.0,WeatherDisplay:10.37,2013-02-11 23:06:00,
2013-02-11 15:11:00,61.6,32.2,30.12,South,190,5.8,6.9,33,0.00,CLR,,0.00,469.0,WeatherDisplay:10.37,2013-02-11 23:11:00,
2013-02-11 15:16:00,61.7,32.3,30.12,SSW,199,7.6,9.2,33,0.00,CLR,,0.00,452.0,WeatherDisplay:10.37,2013-02-11 23:16:00,
2013-02-11 15:21:00,61.5,35.0,30.12,SSW,195,2.0,5.8,37,0.00,CLR,,0.00,397.0,WeatherDisplay:10.37,2013-02-11 23:21:00,
2013-02-11 15:26:00,61.4,34.9,30.12,SSW,192,4.6,9.2,37,0.00,FEW,,0.00,250.0,WeatherDisplay:10.37,2013-02-11 23:26:00,
2013-02-11 15:31:00,60.7,36.8,30.12,SSW,200,5.8,6.9,41,0.00,SCT,,0.00,165.0,WeatherDisplay:10.37,2013-02-11 23:31:00,
2013-02-11 15:36:00,60.3,36.5,30.12,SSW,200,3.6,6.9,41,0.00,SCT,,0.00,169.0,WeatherDisplay:10.37,2013-02-11 23:36:00,
2013-02-11 15:41:00,60.3,37.7,30.12,SSW,198,5.1,5.8,43,0.00,BKN,,0.00,83.0,WeatherDisplay:10.37,2013-02-11 23:41:00,
2013-02-11 15:46:00,60.1,36.9,30.12,SSW,198,4.0,5.8,42,0.00,BKN,,0.00,97.0,WeatherDisplay:10.37,2013-02-11 23:46:00,
2013-02-11 15:51:00,60.3,37.1,30.11,SSW,195,5.5,6.9,42,0.00,BKN,,0.00,100.0,WeatherDisplay:10.37,2013-02-11 23:51:00,
2013-02-11 15:56:00,60.3,38.9,30.12,SSW,195,1.1,2.3,45,0.00,BKN,,0.00,70.0,WeatherDisplay:10.37,2013-02-11 23:56:00,
2013-02-11 16:01:00,60.5,37.9,30.12,SSW,195,1.2,2.3,43,0.00,SCT,,0.00,135.0,WeatherDisplay:10.37,2013-02-12 00:01:00,
2013-02-11 16:06:00,60.4,37.2,30.12,SSW,195,1.8,3.5,42,0.00,BKN,,0.00,84.0,WeatherDisplay:10.37,2013-02-12 00:06:00,
2013-02-11 16:11:00,60.6,38.0,30.12,SSW,195,1.1,2.3,43,0.00,CLR,,0.00,257.0,WeatherDisplay:10.37,2013-02-12 00:11:00,
2013-02-11 16:16:00,60.7,36.8,30.12,SSW,195,0.0,0.0,41,0.00,CLR,,0.00,213.0,WeatherDisplay:10.37,2013-02-12 00:16:00,
2013-02-11 16:22:00,60.6,37.4,30.12,SSW,195,1.3,3.5,42,0.00,BKN,,0.00,84.0,WeatherDisplay:10.37,2013-02-12 00:22:00,
2013-02-11 16:27:00,60.4,38.4,30.12,SSW,195,1.2,2.3,44,0.00,BKN,,0.00,44.0,WeatherDisplay:10.37,2013-02-12 00:27:00,
2013-02-11 16:32:00,60.0,40.2,30.12,SSW,195,3.1,4.0,48,0.00,BKN,,0.00,32.0,WeatherDisplay:10.37,2013-02-12 00:32:00,
2013-02-11 16:37:00,59.6,40.9,30.12,SSW,195,0.8,1.1,50,0.00,BKN,,0.00,67.0,WeatherDisplay:10.37,2013-02-12 00:37:00,
2013-02-11 16:42:00,58.9,40.8,30.12,SSW,195,1.9,3.5,51,0.00,BKN,,0.00,30.0,WeatherDisplay:10.37,2013-02-12 00:42:00,
2013-02-11 16:47:00,58.4,40.8,30.12,SSW,195,1.6,3.5,52,0.00,BKN,,0.00,28.0,WeatherDisplay:10.37,2013-02-12 00:47:00,
2013-02-11 16:52:00,57.8,40.8,30.13,SSW,195,0.1,1.1,53,0.00,BKN,,0.00,28.0,WeatherDisplay:10.37,2013-02-12 00:52:00,
2013-02-11 16:57:00,57.3,41.3,30.13,SSW,195,0.0,0.0,55,0.00,BKN,,0.00,26.0,WeatherDisplay:10.37,2013-02-12 00:57:00,
2013-02-11 17:02:00,57.0,41.9,30.13,SSW,195,2.4,3.5,57,0.00,BKN,,0.00,23.0,WeatherDisplay:10.37,2013-02-12 01:02:00,
2013-02-11 17:07:00,56.2,41.6,30.13,SSW,195,2.6,3.5,58,0.00,BKN,,0.00,21.0,WeatherDisplay:10.37,2013-02-12 01:07:00,
2013-02-11 17:12:00,55.3,41.6,30.13,SSW,195,1.6,2.3,60,0.00,BKN,,0.00,19.0,WeatherDisplay:10.37,2013-02-12 01:12:00,
2013-02-11 17:17:00,54.7,41.9,30.13,SSW,195,0.2,2.3,62,0.00,BKN,,0.00,16.0,WeatherDisplay:10.37,2013-02-12 01:17:00,
2013-02-11 17:22:00,54.4,42.1,30.13,SSW,195,1.5,2.3,63,0.00,BKN,,0.00,14.0,WeatherDisplay:10.37,2013-02-12 01:22:00,
2013-02-11 17:27:00,53.8,40.7,30.13,SSW,195,1.4,2.3,61,0.00,SCT,,0.00,12.0,WeatherDisplay:10.37,2013-02-12 01:27:00,
2013-02-11 17:32:00,53.3,41.0,30.13,SSW,195,1.5,3.5,63,0.00,CLR,,0.00,11.0,WeatherDisplay:10.37,2013-02-12 01:32:00,
2013-02-11 17:37:00,52.9,41.0,30.13,SSW,195,2.0,3.5,64,0.00,,,0.00,9.0,WeatherDisplay:10.37,2013-02-12 01:37:00,
2013-02-11 17:42:00,52.5,40.3,30.13,SSW,195,1.9,2.3,63,0.00,,,0.00,5.0,WeatherDisplay:10.37,2013-02-12 01:42:00,
2013-02-11 17:47:00,51.9,39.7,30.13,SSW,195,1.3,2.3,63,0.00,,,0.00,0.0,WeatherDisplay:10.37,2013-02-12 01:47:00,
2013-02-11 17:52:00,51.5,39.7,30.14,SSW,195,2.4,3.5,64,0.00,,,0.00,0.0,WeatherDisplay:10.37,2013-02-12 01:52:00,
2013-02-11 17:57:00,51.0,38.8,30.13,SSW,195,0.0,0.0,63,0.00,,,0.00,0.0,WeatherDisplay:10.37,2013-02-12 01:57:00,
2013-02-11 18:02:00,51.0,39.2,30.14,SSW,195,0.0,0.0,64,0.00,,,0.00,0.0,WeatherDisplay:10.37,2013-02-12 02:02:00,
2013-02-11 18:07:00,50.9,38.7,30.14,SSW,195,0.0,0.0,63,0.00,,,0.00,0.0,WeatherDisplay:10.37,2013-02-12 02:07:00,
2013-02-11 18:12:00,50.8,39.1,30.15,SSW,195,0.0,0.0,64,0.00,,,0.00,0.0,WeatherDisplay:10.37,2013-02-12 02:12:00,
2013-02-11 18:17:00,50.8,39.5,30.15,SSW,195,0.0,0.0,65,0.00,,,0.00,0.0,WeatherDisplay:10.37,2013-02-12 02:17:00,
2013-02-11 18:22:00,50.4,39.1,30.15,SSW,195,0.0,0.0,65,0.00,,,0.00,0.0,WeatherDisplay:10.37,2013-02-12 02:22:00,
2013-02-11 18:27:00,50.2,39.3,30.15,SSW,195,0.0,0.0,66,0.00,,,0.00,0.0,WeatherDisplay:10.37,2013-02-12 02:27:00,
2013-02-11 18:32:00,49.8,39.7,30.16,SSW,195,0.0,0.0,68,0.00,,,0.00,0.0,WeatherDisplay:10.37,2013-02-12 02:32:00,
2013-02-11 18:37:00,49.5,39.7,30.16,SSW,195,0.0,0.0,69,0.00,,,0.00,0.0,WeatherDisplay:10.37,2013-02-12 02:37:00,
2013-02-11 18:42:00,49.3,39.6,30.16,SSW,195,0.0,0.0,69,0.00,,,0.00,0.0,WeatherDisplay:10.37,2013-02-12 02:42:00,
2013-02-11 18:47:00,48.9,39.2,30.16,SSW,195,0.0,0.0,69,0.00,,,0.00,0.0,WeatherDisplay:10.37,2013-02-12 02:47:00,
2013-02-11 18:52:00,48.3,37.8,30.16,SSW,195,0.0,0.0,67,0.00,,,0.00,0.0,WeatherDisplay:10.37,2013-02-12 02:52:00,
2013-02-11 18:57:00,48.2,37.8,30.16,SSW,195,0.0,0.0,67,0.00,,,0.00,0.0,WeatherDisplay:10.37,2013-02-12 02:57:00,
2013-02-11 19:02:00,47.9,37.5,30.16,SSW,195,0.0,0.0,67,0.00,CLR,,0.00,0.0,WeatherDisplay:10.37,2013-02-12 03:02:00,
2013-02-11 19:07:00,47.5,37.5,30.17,SSW,195,1.6,2.3,68,0.00,CLR,,0.00,0.0,WeatherDisplay:10.37,2013-02-12 03:07:00,
2013-02-11 19:12:00,47.6,37.9,30.17,SSW,195,1.4,2.3,69,0.00,CLR,,0.00,0.0,WeatherDisplay:10.37,2013-02-12 03:12:00,
2013-02-11 19:17:00,48.9,38.8,30.17,SSW,195,1.6,2.3,68,0.00,CLR,,0.00,0.0,WeatherDisplay:10.37,2013-02-12 03:17:00,
2013-02-11 19:22:00,49.3,38.4,30.17,SSW,195,0.0,0.0,66,0.00,CLR,,0.00,0.0,WeatherDisplay:10.37,2013-02-12 03:22:00,
2013-02-11 19:27:00,48.2,37.4,30.17,SSW,195,0.0,0.0,66,0.00,CLR,,0.00,0.0,WeatherDisplay:10.37,2013-02-12 03:27:00,
2013-02-11 19:32:00,47.9,37.8,30.17,SSW,195,0.0,0.0,68,0.00,CLR,,0.00,0.0,WeatherDisplay:10.37,2013-02-12 03:32:00,
2013-02-11 19:37:00,47.2,36.8,30.17,SSW,195,0.0,0.0,67,0.00,CLR,,0.00,0.0,WeatherDisplay:10.37,2013-02-12 03:37:00,
2013-02-11 19:42:00,46.5,36.9,30.17,SSW,195,0.0,0.0,69,0.00,CLR,,0.00,0.0,WeatherDisplay:10.37,2013-02-12 03:42:00,
2013-02-11 19:47:00,46.2,37.0,30.17,SSW,195,0.0,0.0,70,0.00,CLR,,0.00,0.0,WeatherDisplay:10.37,2013-02-12 03:47:00,
2013-02-11 19:52:00,45.8,36.9,30.17,SSW,195,0.0,0.0,71,0.00,CLR,,0.00,0.0,WeatherDisplay:10.37,2013-02-12 03:52:00,
2013-02-11 19:57:00,45.3,36.8,30.17,SSW,195,0.0,0.0,72,0.00,CLR,,0.00,0.0,WeatherDisplay:10.37,2013-02-12 03:57:00,
2013-02-11 20:02:00,45.4,36.9,30.17,SSW,195,0.9,2.3,72,0.00,CLR,,0.00,0.0,WeatherDisplay:10.37,2013-02-12 04:02:00,
2013-02-11 20:07:00,45.4,36.9,30.17,SSW,195,0.0,0.0,72,0.00,CLR,,0.00,0.0,WeatherDisplay:10.37,2013-02-12 04:07:00,
2013-02-11 20:12:00,45.4,36.9,30.17,SSW,195,0.0,0.0,72,0.00,CLR,,0.00,0.0,WeatherDisplay:10.37,2013-02-12 04:12:00,
2013-02-11 20:17:00,45.2,36.7,30.17,SSW,195,0.0,0.0,72,0.00,CLR,,0.00,0.0,WeatherDisplay:10.37,2013-02-12 04:17:00,
2013-02-11 20:22:00,44.6,36.5,30.17,SSW,195,0.0,0.0,73,0.00,CLR,,0.00,0.0,WeatherDisplay:10.37,2013-02-12 04:22:00,
2013-02-11 20:27:00,44.4,36.3,30.18,SSW,195,0.0,0.0,73,0.00,CLR,,0.00,0.0,WeatherDisplay:10.37,2013-02-12 04:27:00,
2013-02-11 20:32:00,44.2,36.4,30.18,SSW,195,0.0,0.0,74,0.00,CLR,,0.00,0.0,WeatherDisplay:10.37,2013-02-12 04:32:00,
2013-02-11 20:37:00,44.1,36.3,30.18,SSW,195,0.4,0.0,74,0.00,CLR,,0.00,0.0,WeatherDisplay:10.37,2013-02-12 04:37:00,
2013-02-11 20:42:00,43.8,36.0,30.18,SSW,195,0.0,0.0,74,0.00,CLR,,0.00,0.0,WeatherDisplay:10.37,2013-02-12 04:42:00,
2013-02-11 20:47:00,43.4,35.7,30.18,SSW,195,0.0,0.0,74,0.00,CLR,,0.00,0.0,WeatherDisplay:10.37,2013-02-12 04:47:00,
2013-02-11 20:52:00,43.3,35.9,30.18,SSW,195,0.0,0.0,75,0.00,CLR,,0.00,0.0,WeatherDisplay:10.37,2013-02-12 04:52:00,
2013-02-11 20:57:00,43.2,36.1,30.18,SSW,195,0.0,0.0,76,0.00,CLR,,0.00,0.0,WeatherDisplay:10.37,2013-02-12 04:57:00,
2013-02-11 21:00:00,43.2,36.1,30.18,SSW,195,0.3,1.1,76,0.00,CLR,,0.00,0.0,WeatherDisplay:10.37,2013-02-12 05:00:00,
2013-02-11 21:01:00,43.2,36.1,30.18,SSW,195,1.4,2.3,76,0.00,CLR,,0.00,0.0,WeatherDisplay:10.37,2013-02-12 05:01:00,
2013-02-11 21:03:00,43.1,36.0,30.19,SSW,195,0.0,0.0,76,0.00,CLR,,0.00,0.0,WeatherDisplay:10.37,2013-02-12 05:03:00,
2013-02-11 21:05:00,43.0,36.0,30.18,SSW,195,0.0,0.0,76,0.00,CLR,,0.00,0.0,WeatherDisplay:10.37,2013-02-12 05:05:00,
2013-02-11 21:10:00,42.9,36.2,30.19,SSW,195,0.0,0.0,77,0.00,CLR,,0.00,0.0,WeatherDisplay:10.37,2013-02-12 05:10:00,
2013-02-11 21:15:00,43.0,36.0,30.19,SSW,195,0.0,0.0,76,0.00,CLR,,0.00,0.0,WeatherDisplay:10.37,2013-02-12 05:15:00,
2013-02-11 21:20:00,42.6,35.9,30.19,SSW,195,0.0,0.0,77,0.00,CLR,,0.00,0.0,WeatherDisplay:10.37,2013-02-12 05:20:00,
2013-02-11 21:25:00,42.5,35.8,30.19,SSW,195,0.0,0.0,77,0.00,CLR,,0.00,0.0,WeatherDisplay:10.37,2013-02-12 05:25:00,
2013-02-11 21:30:00,42.4,35.7,30.19,SSW,195,0.0,0.0,77,0.00,CLR,,0.00,0.0,WeatherDisplay:10.37,2013-02-12 05:30:00,
2013-02-11 21:35:00,42.3,35.6,30.19,SSW,195,0.0,0.0,77,0.00,CLR,,0.00,0.0,WeatherDisplay:10.37,2013-02-12 05:35:00,
2013-02-11 21:40:00,42.1,35.4,30.19,SSW,195,0.0,0.0,77,0.00,CLR,,0.00,0.0,WeatherDisplay:10.37,2013-02-12 05:40:00,
2013-02-11 21:45:00,41.8,35.4,30.19,SSW,195,0.0,0.0,78,0.00,CLR,,0.00,0.0,WeatherDisplay:10.37,2013-02-12 05:45:00,
2013-02-11 21:50:00,41.6,35.2,30.19,SSW,195,0.0,0.0,78,0.00,CLR,,0.00,0.0,WeatherDisplay:10.37,2013-02-12 05:50:00,
2013-02-11 21:55:00,41.6,35.2,30.19,SSW,195,0.0,0.0,78,0.00,CLR,,0.00,0.0,WeatherDisplay:10.37,2013-02-12 05:55:00,
2013-02-11 22:00:00,41.2,34.9,30.19,SSW,195,0.0,0.0,78,0.00,CLR,,0.00,0.0,WeatherDisplay:10.37,2013-02-12 06:00:00,
2013-02-11 22:05:00,41.2,34.9,30.19,SSW,195,0.0,0.0,78,0.00,,,0.00,0.0,WeatherDisplay:10.37,2013-02-12 06:05:00,
2013-02-11 22:10:00,41.2,34.9,30.19,SSW,195,0.0,0.0,78,0.00,,,0.00,0.0,WeatherDisplay:10.37,2013-02-12 06:10:00,
2013-02-11 22:15:00,41.0,34.7,30.19,SSW,195,0.0,0.0,78,0.00,,,0.00,0.0,WeatherDisplay:10.37,2013-02-12 06:15:00,
2013-02-11 22:20:00,40.9,34.6,30.19,SSW,195,0.0,0.0,78,0.00,,,0.00,0.0,WeatherDisplay:10.37,2013-02-12 06:20:00,
2013-02-11 22:25:00,40.8,34.5,30.19,SSW,195,0.0,0.0,78,0.00,,,0.00,0.0,WeatherDisplay:10.37,2013-02-12 06:25:00,
2013-02-11 22:30:00,40.8,34.5,30.19,SSW,195,0.0,0.0,78,0.00,,,0.00,0.0,WeatherDisplay:10.37,2013-02-12 06:30:00,
2013-02-11 22:35:00,40.6,34.6,30.19,SSW,195,0.0,0.0,79,0.00,,,0.00,0.0,WeatherDisplay:10.37,2013-02-12 06:35:00,
2013-02-11 22:40:00,40.3,34.3,30.19,SSW,195,0.0,0.0,79,0.00,,,0.00,0.0,WeatherDisplay:10.37,2013-02-12 06:40:00,
2013-02-11 22:45:00,39.9,34.2,30.19,SSW,195,0.0,1.1,80,0.00,,,0.00,0.0,WeatherDisplay:10.37,2013-02-12 06:45:00,
2013-02-11 22:50:00,40.1,34.4,30.20,SSW,195,0.0,0.0,80,0.00,,,0.00,0.0,WeatherDisplay:10.37,2013-02-12 06:50:00,
2013-02-11 22:55:00,40.0,34.3,30.20,SSW,195,0.0,0.0,80,0.00,,,0.00,0.0,WeatherDisplay:10.37,2013-02-12 06:55:00,
2013-02-11 23:00:00,39.8,34.1,30.20,SSW,195,0.0,0.0,80,0.00,,,0.00,0.0,WeatherDisplay:10.37,2013-02-12 07:00:00,
2013-02-11 23:05:00,39.8,34.4,30.20,SSW,195,0.0,0.0,81,0.00,,,0.00,0.0,WeatherDisplay:10.37,2013-02-12 07:05:00,
2013-02-11 23:10:00,39.8,34.4,30.20,SSW,195,0.0,0.0,81,0.00,,,0.00,0.0,WeatherDisplay:10.37,2013-02-12 07:10:00,
2013-02-11 23:15:00,39.5,34.2,30.20,SSW,195,0.0,0.0,81,0.00,,,0.00,0.0,WeatherDisplay:10.37,2013-02-12 07:15:00,
2013-02-11 23:20:00,39.3,34.0,30.21,SSW,195,0.0,0.0,81,0.00,,,0.00,0.0,WeatherDisplay:10.37,2013-02-12 07:20:00,
2013-02-11 23:25:00,39.2,33.9,30.21,SSW,195,0.0,0.0,81,0.00,,,0.00,0.0,WeatherDisplay:10.37,2013-02-12 07:25:00,
2013-02-11 23:30:00,39.4,34.1,30.21,SSW,195,0.0,0.0,81,0.00,,,0.00,0.0,WeatherDisplay:10.37,2013-02-12 07:30:00,
2013-02-11 23:35:00,39.3,34.0,30.21,SSW,195,0.0,0.0,81,0.00,,,0.00,0.0,WeatherDisplay:10.37,2013-02-12 07:35:00,
2013-02-11 23:40:00,39.1,34.1,30.21,SSW,195,0.0,0.0,82,0.00,,,0.00,0.0,WeatherDisplay:10.37,2013-02-12 07:40:00,
2013-02-11 23:45:00,39.0,34.0,30.21,SSW,195,0.0,0.0,82,0.00,,,0.00,0.0,WeatherDisplay:10.37,2013-02-12 07:45:00,
2013-02-11 23:50:00,38.7,33.7,30.21,SSW,195,0.0,0.0,82,0.00,,,0.00,0.0,WeatherDisplay:10.37,2013-02-12 07:50:00,
2013-02-11 23:55:00,38.5,33.5,30.22,SSW,195,0.0,0.0,82,0.00,,,0.00,0.0,WeatherDisplay:10.37,2013-02-12 07:55:00,